SCP
0 0 0 0 0 0 0 0 0 0 0 0 0 0 0 0 0 0 0 0 0 0
0 0 0 0 0 0 0 0 0 0 0 0 0 0 0 0 0 0 0 0 0 0
0 0 0 0 0 0 0 0 0 0 0 0 0 0 0 0 0 0 0 0 0 0
0 0 0 0 0 0 0 0 0 0 0 0 0 0 0 0 0 0 0 0 0 0
0 0 0 0 0 0 0 0 0 0 0 0 0 0 0 0 0 0 0 0 0 0
-0 0 0 0 0 0 0 0 0 0 0 0 0 0 0 0 0 0 0 0 0 0
0 -0 0 0 0 0 0 0 0 0 0 0 0 0 0 0 0 0 0 0 0 0
-0 -0 -0 0 0 0 0 0 0 0 0 0 0 0 0 0 0 0 0 0 0 0
-0 -0 0 0 0 0 0 0 0 0 0 0 0 0 0 0 0 0 0 0 0 0
-0 -0 -0 -0 0 0 0 0 0 0 0 0 0 0 0 0 0 0 0 0 0 0
-0 -0 -0 -0 -0 0 0 0 0 0 0 0 0 0 0 0 0 0 0 0 0 0
-0 -0 -0 -0 0 0 0 0 0 0 0 0 0 0 0 0 0 0 0 0 0 0
-0 -0 -0 0 0 0 0 0 0 0 0 0 0 0 0 0 0 0 0 0 0 0
-0 -0 -0 -0 0 0 0 0 0 0 0 0 0 0 0 0 0 0 0 0 0 0
Wind_Speed_500mb
57 38 66 78 88 100 102 91 100 96 96 75 80 82 74 71 66 59 56 53 50 47
48 54 43 70 69 78 88 89 90 87 83 93 93 91 82 73 67 56 57 54 49 47
47 45 51 48 67 77 84 82 81 92 99 89 93 85 77 71 65 62 57 53 49 45
57 46 40 38 55 67 72 78 81 84 98 103 100 86 87 81 74 62 58 51 47 46
60 55 46 36 41 57 70 74 77 80 90 103 100 94 79 73 61 55 53 53 50 48
62 56 50 47 41 46 60 73 79 80 86 90 95 88 84 66 62 55 56 52 49 45
66 58 52 46 45 41 50 61 71 73 78 83 88 85 71 59 63 51 49 52 48 42
76 58 54 49 42 39 40 51 58 66 69 78 80 75 72 70 60 59 61 50 48 43
74 68 53 51 42 37 36 39 53 60 66 70 71 70 65 62 61 60 53 51 49 42
72 69 59 47 46 36 31 26 39 49 60 69 64 55 57 59 57 57 54 51 47 42
74 67 66 46 42 41 28 28 28 41 46 50 54 52 48 53 58 56 52 48 42 39
71 70 60 63 40 40 38 33 32 34 35 40 39 42 52 52 56 54 49 46 44 40
66 64 59 56 57 38 40 43 39 37 39 40 41 45 49 54 55 53 51 49 46 41
64 60 59 50 56 45 38 40 40 41 42 46 53 55 53 57 53 50 50 49 47 42
Wind_Direction_500mb
268 275 257 252 251 254 258 260 241 236 247 236 238 230 223 226 230 231 232 234 233 234
281 273 271 266 263 255 258 256 253 233 246 248 220 229 227 224 231 230 232 231 228 229
323 290 266 276 262 261 262 261 260 247 237 240 232 225 224 224 223 226 227 226 224 226
342 316 284 281 277 267 267 262 259 255 238 231 227 227 220 217 222 218 221 222 222 224
336 340 312 288 286 278 263 262 253 248 244 231 226 218 215 207 214 211 221 219 218 219
338 332 337 310 288 279 269 258 249 243 243 233 223 216 210 208 216 217 221 220 216 218
344 332 328 330 305 284 277 263 255 248 240 228 215 213 207 197 214 207 222 218 215 212
351 334 328 323 324 304 284 269 258 245 233 217 211 206 197 198 206 210 216 210 211 206
346 346 327 325 319 317 303 276 255 239 222 207 205 203 196 195 206 210 206 207 208 205
343 346 336 320 319 306 296 271 245 228 211 202 199 194 196 194 201 211 205 203 206 204
339 339 344 326 313 302 282 261 233 220 207 202 198 198 208 202 206 202 201 202 201 202
334 334 338 340 313 298 283 258 238 225 215 208 201 203 208 203 202 199 198 198 199 200
325 330 328 333 331 293 284 267 256 233 222 215 206 205 208 204 203 199 198 198 199 199
318 323 325 319 331 318 282 275 255 244 232 216 206 201 205 208 204 204 204 204 203 201
Wind_Speed_850mb
57 38 66 78 88 100 102 91 100 96 96 75 80 82 74 71 66 59 56 53 50 47
48 54 43 70 69 78 88 89 90 87 83 93 93 91 82 73 67 56 57 54 49 47
47 45 51 48 67 77 84 82 81 92 99 89 93 85 77 71 65 62 57 53 49 45
57 46 40 38 55 67 72 78 81 84 98 103 100 86 87 81 74 62 58 51 47 46
60 55 46 36 41 57 70 74 77 80 90 103 100 94 79 73 61 55 53 53 50 48
62 56 50 47 41 46 60 73 79 80 86 90 95 88 84 66 62 55 56 52 49 45
66 58 52 46 45 41 50 61 71 73 78 83 88 85 71 59 63 51 49 52 48 42
76 58 54 49 42 39 40 51 58 66 69 78 80 75 72 70 60 59 61 50 48 43
74 68 53 51 42 37 36 39 53 60 66 70 71 70 65 62 61 60 53 51 49 42
72 69 59 47 46 36 31 26 39 49 60 69 64 55 57 59 57 57 54 51 47 42
74 67 66 46 42 41 28 28 28 41 46 50 54 52 48 53 58 56 52 48 42 39
71 70 60 63 40 40 38 33 32 34 35 40 39 42 52 52 56 54 49 46 44 40
66 64 59 56 57 38 40 43 39 37 39 40 41 45 49 54 55 53 51 49 46 41
64 60 59 50 56 45 38 40 40 41 42 46 53 55 53 57 53 50 50 49 47 42
Wind_Direction_850mb
268 275 257 252 251 254 258 260 241 236 247 236 238 230 223 226 230 231 232 234 233 234
281 273 271 266 263 255 258 256 253 233 246 248 220 229 227 224 231 230 232 231 228 229
323 290 266 276 262 261 262 261 260 247 237 240 232 225 224 224 223 226 227 226 224 226
342 316 284 281 277 267 267 262 259 255 238 231 227 227 220 217 222 218 221 222 222 224
336 340 312 288 286 278 263 262 253 248 244 231 226 218 215 207 214 211 221 219 218 219
338 332 337 310 288 279 269 258 249 243 243 233 223 216 210 208 216 217 221 220 216 218
344 332 328 330 305 284 277 263 255 248 240 228 215 213 207 197 214 207 222 218 215 212
351 334 328 323 324 304 284 269 258 245 233 217 211 206 197 198 206 210 216 210 211 206
346 346 327 325 319 317 303 276 255 239 222 207 205 203 196 195 206 210 206 207 208 205
343 346 336 320 319 306 296 271 245 228 211 202 199 194 196 194 201 211 205 203 206 204
339 339 344 326 313 302 282 261 233 220 207 202 198 198 208 202 206 202 201 202 201 202
334 334 338 340 313 298 283 258 238 225 215 208 201 203 208 203 202 199 198 198 199 200
325 330 328 333 331 293 284 267 256 233 222 215 206 205 208 204 203 199 198 198 199 199
318 323 325 319 331 318 282 275 255 244 232 216 206 201 205 208 204 204 204 204 203 201